Hourly Data Report for April 14, 2017

OTTAWA INTL A
ONTARIO

45°19'00.000" N
75°40'00.000" W
114.90 m
6106001
71628
YOW

Download Data

Hourly Data (April 2017)
Hourly Data Report for April 14, 2017
TIME
LST
Temp Definition
°C
Dew Point Definition
°C
Rel Hum Definition
%
Precip. Amount Definition
mm

Wind Dir Definition
10's deg

Wind Spd Definition
km/h
Visibility Definition
km
Stn Press Definition
kPa
Hmdx Definition


Wind Chill Definition


Weather Definition


00:00 4.3 -3.7 56   32 4 24.1 101.57     LegendNANA
01:00 3.9 -2.5 63   35 4 24.1 101.57     Clear
02:00 3.0 -3.8 61   36 2 24.1 101.57     LegendNANA
03:00 1.6 -4.3 65   36 4 24.1 101.58     LegendNANA
04:00 1.8 -3.7 67   1 3 24.1 101.61     Clear
05:00 -0.4 -4.5 74   3 5 24.1 101.63   -2 LegendNANA
06:00 1.8 -4.3 64   1 5 24.1 101.68     LegendNANA
07:00 4.5 -4.0 54   1 7 24.1 101.73     Clear
08:00 7.4 -2.9 48   3 4 24.1 101.78     LegendNANA
09:00 9.4 -5.3 35   8 4 24.1 101.80     LegendNANA
10:00 11.4 -6.5 28   3 7 24.1 101.79     Clear
11:00 11.9 -7.0 26   18 4 24.1 101.73     LegendNANA
12:00 13.1 -7.6 23   35 10 24.1 101.65     LegendNANA
13:00 13.9 -10.0 18   22 10 24.1 101.57     Clear
14:00 14.0 -8.6 20   2 3 24.1 101.50     LegendNANA
15:00 14.9 -6.6 22   31 8 24.1 101.42     LegendNANA
16:00 15.4 -6.8 21   29 18 24.1 101.41     Clear
17:00 14.5 -8.2 20   32 12 24.1 101.38     LegendNANA
18:00 13.7 -7.0 23   31 9 24.1 101.39     LegendNANA
19:00 10.4 -5.6 32   0 1 24.1 101.35     Mainly Clear
20:00 7.2 -6.2 38   11 5 24.1 101.40     LegendNANA
21:00 9.3 -7.8 29   14 9 24.1 101.40     LegendNANA
22:00 6.4 -6.9 38   16 10 24.1 101.38     Clear
23:00 7.8 -7.1 34   16 9 24.1 101.35     LegendNANA

Notes on Data Quality.

Legend

  • E = Estimated
  • M = Missing
  • NA = Not Available*
  • [empty] = Indicates an unobserved value
Date modified: